When you browse on this site, cookies collect data to enhance your experience and personalize the content and advertising you see.
Visit our Privacy Policy to learn more. By continuing to use the site, you agree to this use of cookies and data.
  • In France
  • List of Countries
  • For 7 days
  • Water Temperature
  • Weather Map
  • Weather Widgets
  • user-avatar
    Login

    Hourly Weather Kipungo

    Today, 20 February, Thursday

    Time Temperature Precipitation Wind Pressure Humidity
    00:00 +21°C° 0.1 mm 2 mps 653 mmHg 87%
    01:00 +21°C° 0 mm 2 mps 653 mmHg 87%
    02:00 +20°C° 0.3 mm 2 mps 653 mmHg 89%
    03:00 +20°C° 0.3 mm 2 mps 653 mmHg 91%
    04:00 +19°C° 0.3 mm 2 mps 653 mmHg 93%
    05:00 +19°C° 0.3 mm 2 mps 653 mmHg 93%
    06:00 +20°C° 0.3 mm 1 mps 653 mmHg 94%
    07:00 +20°C° 0.3 mm 1 mps 654 mmHg 94%
    08:00 +21°C° 0 mm 1 mps 654 mmHg 90%
    09:00 +23°C° 0 mm 1 mps 654 mmHg 86%
    10:00 +22°C° 0 mm 0 mps 655 mmHg 83%
    11:00 +23°C° 0.1 mm 0 mps 654 mmHg 77%
    12:00 +26°C° 0.1 mm 1 mps 654 mmHg 71%
    13:00 +28°C° 0.1 mm 1 mps 654 mmHg 65%
    14:00 +28°C° 0 mm 1 mps 653 mmHg 65%
    15:00 +27°C° 0 mm 1 mps 652 mmHg 65%
    16:00 +27°C° 0 mm 1 mps 652 mmHg 66%
    17:00 +25°C° 0.1 mm 1 mps 651 mmHg 72%
    18:00 +24°C° 0.1 mm 1 mps 651 mmHg 78%
    19:00 +22°C° 0.1 mm 1 mps 651 mmHg 84%
    20:00 +22°C° 0 mm 1 mps 652 mmHg 85%
    21:00 +21°C° 0 mm 1 mps 652 mmHg 86%
    22:00 +21°C° 0 mm 1 mps 652 mmHg 88%
    23:00 +20°C° 0 mm 1 mps 652 mmHg 88%

    Tomorrow, 21 February, Friday

    Time Temperature Precipitation Wind Pressure Humidity
    00:00 +20°C° 0 mm 1 mps 652 mmHg 89%
    01:00 +20°C° 0 mm 1 mps 652 mmHg 89%
    02:00 +19°C° 0 mm 1 mps 651 mmHg 90%
    03:00 +19°C° 0 mm 1 mps 651 mmHg 90%
    04:00 +19°C° 0 mm 1 mps 651 mmHg 91%
    05:00 +19°C° 0 mm 1 mps 652 mmHg 89%
    06:00 +20°C° 0 mm 1 mps 652 mmHg 88%
    07:00 +20°C° 0 mm 1 mps 653 mmHg 86%
    14:00 +32°C° 0 mm 1 mps 653 mmHg 42%
    15:00 +31°C° 0 mm 1 mps 653 mmHg 42%
    16:00 +31°C° 0 mm 1 mps 652 mmHg 43%
    17:00 +28°C° 0 mm 1 mps 652 mmHg 50%
    18:00 +26°C° 0 mm 1 mps 652 mmHg 57%
    19:00 +24°C° 0 mm 1 mps 652 mmHg 64%
    20:00 +23°C° 0 mm 1 mps 652 mmHg 68%
    21:00 +22°C° 0 mm 1 mps 652 mmHg 71%
    22:00 +22°C° 0 mm 1 mps 652 mmHg 74%
    23:00 +21°C° 0 mm 1 mps 652 mmHg 78%

    Day after tomorrow, 22 February, Saturday

    Time Temperature Precipitation Wind Pressure Humidity
    00:00 +21°C° 0 mm 1 mps 652 mmHg 82%
    01:00 +20°C° 0 mm 1 mps 652 mmHg 85%
    02:00 +20°C° 0 mm 1 mps 652 mmHg 84%
    03:00 +20°C° 0 mm 1 mps 651 mmHg 83%
    04:00 +19°C° 0 mm 1 mps 651 mmHg 82%
    05:00 +20°C° 0 mm 1 mps 652 mmHg 80%
    06:00 +20°C° 0 mm 1 mps 652 mmHg 79%
    07:00 +21°C° 0 mm 1 mps 653 mmHg 77%
    08:00 +23°C° 0 mm 1 mps 653 mmHg 67%
    09:00 +26°C° 0 mm 1 mps 654 mmHg 56%
    10:00 +29°C° 0 mm 1 mps 655 mmHg 45%
    11:00 +30°C° 0 mm 1 mps 654 mmHg 41%
    12:00 +31°C° 0 mm 1 mps 654 mmHg 38%
    13:00 +32°C° 0 mm 1 mps 654 mmHg 35%
    14:00 +32°C° 0 mm 1 mps 653 mmHg 37%
    15:00 +31°C° 0 mm 1 mps 652 mmHg 38%
    16:00 +31°C° 0 mm 2 mps 652 mmHg 40%
    17:00 +29°C° 0 mm 2 mps 652 mmHg 47%
    18:00 +26°C° 0 mm 1 mps 651 mmHg 54%
    19:00 +24°C° 0 mm 1 mps 651 mmHg 61%
    20:00 +23°C° 0 mm 2 mps 652 mmHg 65%
    21:00 +23°C° 0 mm 2 mps 652 mmHg 69%
    22:00 +21°C° 0 mm 2 mps 652 mmHg 73%
    23:00 +20°C° 0 mm 2 mps 652 mmHg 75%

    23 February, Sunday

    Time Temperature Precipitation Wind Pressure Humidity
    00:00 +20°C° 0 mm 2 mps 652 mmHg 78%
    01:00 +20°C° 0 mm 1 mps 651 mmHg 81%
    02:00 +20°C° 0 mm 1 mps 651 mmHg 80%
    03:00 +20°C° 0 mm 1 mps 651 mmHg 78%
    04:00 +19°C° 0 mm 1 mps 651 mmHg 77%
    05:00 +19°C° 0 mm 1 mps 651 mmHg 76%
    06:00 +20°C° 0 mm 1 mps 652 mmHg 76%
    07:00 +20°C° 0 mm 1 mps 652 mmHg 75%
    08:00 +23°C° 0 mm 1 mps 653 mmHg 65%
    09:00 +25°C° 0 mm 1 mps 653 mmHg 54%
    10:00 +28°C° 0 mm 1 mps 654 mmHg 44%
    11:00 +29°C° 0 mm 2 mps 654 mmHg 41%
    12:00 +30°C° 0 mm 2 mps 654 mmHg 39%
    13:00 +31°C° 0 mm 3 mps 653 mmHg 36%
    14:00 +30°C° 0 mm 3 mps 653 mmHg 41%
    15:00 +30°C° 0 mm 3 mps 652 mmHg 45%
    16:00 +29°C° 0 mm 3 mps 652 mmHg 49%
    17:00 +27°C° 0 mm 3 mps 652 mmHg 55%
    18:00 +25°C° 0 mm 3 mps 652 mmHg 60%
    19:00 +22°C° 0 mm 3 mps 652 mmHg 66%
    20:00 +21°C° 0 mm 3 mps 652 mmHg 68%
    21:00 +21°C° 0 mm 3 mps 652 mmHg 69%
    22:00 +20°C° 0 mm 4 mps 653 mmHg 71%
    23:00 +20°C° 0 mm 3 mps 653 mmHg 75%

    24 February, Monday

    Time Temperature Precipitation Wind Pressure Humidity
    00:00 +19°C° 0 mm 2 mps 652 mmHg 79%
    01:00 +20°C° 0 mm 1 mps 652 mmHg 82%
    02:00 +19°C° 0 mm 1 mps 652 mmHg 85%
    03:00 +19°C° 0 mm 1 mps 652 mmHg 87%
    04:00 +17°C° 0 mm 2 mps 652 mmHg 89%
    05:00 +17°C° 0 mm 2 mps 652 mmHg 88%
    06:00 +18°C° 0 mm 2 mps 652 mmHg 87%
    07:00 +18°C° 0 mm 2 mps 653 mmHg 87%
    08:00 +20°C° 0 mm 2 mps 653 mmHg 76%
    09:00 +23°C° 0 mm 2 mps 654 mmHg 65%
    10:00 +26°C° 0 mm 2 mps 655 mmHg 54%
    11:00 +27°C° 0 mm 2 mps 655 mmHg 50%
    12:00 +29°C° 0 mm 2 mps 654 mmHg 46%
    13:00 +30°C° 0 mm 2 mps 654 mmHg 41%
    14:00 +30°C° 0 mm 3 mps 654 mmHg 44%
    15:00 +29°C° 0 mm 3 mps 653 mmHg 47%
    16:00 +29°C° 0 mm 3 mps 652 mmHg 49%
    17:00 +27°C° 0 mm 3 mps 652 mmHg 58%
    18:00 +25°C° 0 mm 3 mps 652 mmHg 67%
    19:00 +21°C° 0 mm 3 mps 652 mmHg 76%
    20:00 +21°C° 0 mm 2 mps 652 mmHg 78%
    21:00 +20°C° 0 mm 2 mps 653 mmHg 79%
    22:00 +19°C° 0 mm 2 mps 653 mmHg 81%
    23:00 +19°C° 0 mm 2 mps 653 mmHg 82%

    25 February, Tuesday

    Time Temperature Precipitation Wind Pressure Humidity
    00:00 +18°C° 0 mm 2 mps 652 mmHg 84%
    01:00 +18°C° 0 mm 2 mps 652 mmHg 85%
    02:00 +18°C° 0 mm 2 mps 652 mmHg 86%
    03:00 +17°C° 0 mm 2 mps 652 mmHg 86%
    04:00 +18°C° 0 mm 1 mps 651 mmHg 87%
    05:00 +18°C° 0 mm 1 mps 652 mmHg 87%
    06:00 +18°C° 0 mm 1 mps 652 mmHg 86%
    07:00 +17°C° 0 mm 0 mps 652 mmHg 86%
    08:00 +22°C° 0 mm 1 mps 653 mmHg 74%
    09:00 +24°C° 0 mm 1 mps 654 mmHg 62%
    10:00 +27°C° 0 mm 1 mps 654 mmHg 50%
    11:00 +29°C° 0 mm 1 mps 654 mmHg 46%
    12:00 +30°C° 0 mm 1 mps 654 mmHg 42%
    13:00 +31°C° 0 mm 2 mps 654 mmHg 38%
    14:00 +31°C° 0 mm 2 mps 653 mmHg 41%
    15:00 +30°C° 0 mm 3 mps 652 mmHg 43%
    16:00 +30°C° 0 mm 3 mps 651 mmHg 45%
    17:00 +27°C° 0 mm 3 mps 651 mmHg 54%
    18:00 +25°C° 0 mm 3 mps 651 mmHg 62%
    19:00 +23°C° 0 mm 2 mps 651 mmHg 71%
    20:00 +21°C° 0 mm 2 mps 651 mmHg 72%
    21:00 +20°C° 0 mm 2 mps 652 mmHg 74%
    22:00 +19°C° 0 mm 2 mps 652 mmHg 76%
    23:00 +19°C° 0 mm 2 mps 652 mmHg 78%
    Show more